Regional Weather Roundup
Issued by NWS

Home | Current Version | Previous Version | Text Only | Print | Product List | Glossary Off
Versions: 1 2 3 4 5 6 7 8 9 10 11 12 13 14 15 16 17 18 19 20 21 22 23 24 25 26 27

000
ASUS45 KCYS 232010
RWRWY

WYOMING REGIONAL WEATHER ROUNDUP
NATIONAL WEATHER SERVICE CHEYENNE WY
200 PM MDT TUE AUG 23 2016

NOTE:  "FAIR" INDICATES FEW OR NO CLOUDS BELOW 12,000 FEET
WITH NO SIGNIFICANT WEATHER AND/OR OBSTRUCTIONS TO VISIBILITY.

WYZ001-232100-
YELLOWSTONE NATIONAL PARK

CITY           SKY/WX    TMP DP  RH WIND       PRES   REMARKS
LK YELLOWSTONE   N/A     63  14  15 SW9G18    30.24R
W YELLOWSTONE  NOT AVBL

$$
WYZ002>013-054>058-071-098>099-232100-
NORTHERN WYOMING

CITY           SKY/WX    TMP DP  RH WIND       PRES   REMARKS
JACKSON        SUNNY     73  19  13 SW12G21   30.15
CODY           FAIR      72  34  25 CALM      30.05F
GREYBULL       FAIR      82  17   9 VRB6      29.97F
WORLAND        FAIR      79  21  11 N8        29.99F
SHERIDAN       FAIR      75  29  18 NE5       30.03F
BUFFALO        FAIR      73  26  17 VRB5      30.08F
GILLETTE       FAIR      74  27  17 N10       30.04S
HULETT         FAIR      72  27  18 NW10G18   30.04S
NEWCASTLE      FAIR      73  23  15 NW16      30.00S

$$
WYZ014>020-022>026-101>103-232100-
CENTRAL WYOMING

CITY           SKY/WX    TMP DP  RH WIND       PRES   REMARKS
BIG PINEY      FAIR      77  18  11 W13G23    30.18F
PINEDALE       FAIR      73  16  11 NW17G24   30.19F
DUBOIS         FAIR      72  14  11 NW25G33   30.14F
LANDER         FAIR      83  16   8 NW12G21   30.04F
RIVERTON       FAIR      79  12   8 VRB3      30.04F
CASPER         FAIR      78  20  11 VRB5      30.06F
DOUGLAS        FAIR      77  20  12 VRB6      30.06S

$$
WYZ021-027>030-104>119-232100-
SOUTHERN WYOMING

CITY           SKY/WX    TMP DP  RH WIND       PRES   REMARKS
EVANSTON       FAIR      78  26  14 W21G31    30.23F
FORT BRIDGER   FAIR      80  26  14 W22G29    30.23F
ROCK SPRINGS   FAIR      78  16   9 W13G24    30.18F
DIXON          FAIR      80  24  12 W12G18    30.20F
RAWLINS        FAIR      80  13   8 W21G32    30.17F
SARATOGA       FAIR      77  21  12 W9G26     30.21S
LARAMIE        FAIR      76  22  13 NW10G21   30.19S
CHEYENNE       FAIR      79  22  12 NW15G23   30.12R
TORRINGTON     FAIR      83  16   8 NW18G24   29.98R
PINE BLUFFS    FAIR      79  28  15 N12G22    30.06R

$$




USA.gov is the U.S. government's official web portal to all federal, state and local government web resources and services.